N7LK Weather Reports


Display with metric or nautical units.
time (UTC)temp
F
wind
direction
speed
MPH
gust
MPH
rain 1hr
in
rain 24hr
in
rain mn
in
humidity
%
barometer
mb
20260902232335 103 253 7.0 10.0 0.00 0.00 0.00 27 1008.4
20260902231342 102 44 1.0 12.0 0.00 0.00 0.00 27 1008.4
20260902230334 102 182 4.0 13.0 0.00 0.00 0.00 27 1008.6
20260902225341 103 121 6.0 15.0 0.00 0.00 0.00 26 1008.7
20260902224327 104 259 6.0 14.0 0.00 0.00 0.00 26 1008.9
20260902223338 103 162 2.0 10.0 0.00 0.00 0.00 26 1008.9
20260902222326 103 229 6.0 14.0 0.00 0.00 0.00 26 1009.1
20260902221333 103 303 5.0 12.0 0.00 0.00 0.00 26 1009.2
20260902220359 103 263 3.0 10.0 0.00 0.00 0.00 25 1009.3
20260902215330 103 215 4.0 11.0 0.00 0.00 0.00 25 1009.5
20260902214337 103 212 4.0 12.0 0.00 0.00 0.00 25 1009.6
20260902213344 103 268 6.0 14.0 0.00 0.00 0.00 25 1009.6
20260902212330 103 205 4.0 12.0 0.00 0.00 0.00 26 1009.8
20260902211341 103 185 6.0 10.0 0.00 0.00 0.00 26 1009.9
20260902210329 103 215 4.0 12.0 0.00 0.00 0.00 25 1010.0
20260902205336 102 270 2.0 10.0 0.00 0.00 0.00 25 1010.1
20260902204403 102 215 3.0 8.0 0.00 0.00 0.00 25 1010.2
20260902203332 102 269 3.0 11.0 0.00 0.00 0.00 26 1010.5
20260902202340 102 284 6.0 12.0 0.00 0.00 0.00 27 1010.7
20260902201328 101 360 1.0 8.0 0.00 0.00 0.00 28 1010.9
20260902200335 101 194 2.0 8.0 0.00 0.00 0.00 29 1011.1
20260902195343 100 265 6.0 10.0 0.00 0.00 0.00 29 1011.2
20260902194330 100 294 5.0 10.0 0.00 0.00 0.00 29 1011.4
20260902193338 100 178 4.0 8.0 0.00 0.00 0.00 29 1011.5
20260902192346 100 93 1.0 9.0 0.00 0.00 0.00 29 1011.7
20260902191356 100 215 5.0 10.0 0.00 0.00 0.00 29 1011.8
20260902190341 100 211 3.0 9.0 0.00 0.00 0.00 30 1012.0
20260902185349 99 307 3.0 9.0 0.00 0.00 0.00 30 1012.1
20260902184332 99 217 3.0 8.0 0.00 0.00 0.00 30 1012.2
20260902183338 99 291 2.0 10.0 0.00 0.00 0.00 31 1012.3
20260902182330 99 223 3.0 6.0 0.00 0.00 0.00 31 1012.4
20260902181335 99 63 1.0 8.0 0.00 0.00 0.00 32 1012.5
20260902180342 98 103 1.0 9.0 0.00 0.00 0.00 34 1012.6
20260902175329 98 195 5.0 8.0 0.00 0.00 0.00 34 1012.7
20260902174340 97 165 2.0 6.0 0.00 0.00 0.00 35 1012.8
20260902173407 97 293 0.0 5.0 0.00 0.00 0.00 38 1012.8
20260902172332 96 313 1.0 3.0 0.00 0.00 0.00 38 1012.9
20260902171339 95 116 2.0 4.0 0.00 0.00 0.00 39 1012.9
20260902170329 95 37 3.0 5.0 0.00 0.00 0.00 40 1013.0
20260902165335 95 78 3.0 8.0 0.00 0.00 0.00 40 1013.0
20260902164402 94 220 1.0 3.0 0.00 0.00 0.00 41 1012.9
20260902163328 95 28 4.0 5.0 0.00 0.00 0.00 41 1012.9
20260902162338 94 146 1.0 4.0 0.00 0.00 0.00 42 1012.9
20260902161327 94 98 1.0 4.0 0.00 0.00 0.00 42 1012.9
20260902160333 93 76 2.0 4.0 0.00 0.00 0.00 44 1012.9
20260902155340 93 355 0.0 4.0 0.00 0.00 0.00 44 1013.0
20260902154330 92 76 2.0 4.0 0.00 0.00 0.00 46 1012.8
20260902153337 91 360 0.0 2.0 0.00 0.00 0.00 48 1012.9
20260902152344 91 52 2.0 4.0 0.00 0.00 0.00 49 1012.9
20260902151331 90 346 2.0 4.0 0.00 0.00 0.00 50 1012.9
20260902150342 89 19 2.0 3.0 0.00 0.00 0.00 52 1012.8
20260902145328 88 88 1.0 6.0 0.00 0.00 0.00 53 1012.6
20260902144334 87 60 1.0 4.0 0.00 0.00 0.00 55 1012.5
20260902143341 87 109 1.0 6.0 0.00 0.00 0.00 55 1012.5
20260902142332 86 84 1.0 4.0 0.00 0.00 0.00 56 1012.4
20260902141339 85 90 2.0 4.0 0.00 0.00 0.00 57 1012.3
20260902140327 85 98 1.0 2.0 0.00 0.00 0.00 59 1012.3
20260902135334 84 67 1.0 2.0 0.00 0.00 0.00 59 1012.2
20260902134406 84 61 0.0 4.0 0.00 0.00 0.00 59 1012.1
20260902133332 84 59 2.0 3.0 0.00 0.00 0.00 58 1012.0
20260902132337 84 66 0.0 1.0 0.00 0.00 0.00 58 1012.0
20260902131345 84 62 0.0 2.0 0.00 0.00 0.00 58 1011.8
20260902130336 84 65 1.0 2.0 0.00 0.00 0.00 57 1011.7
20260902125402 85 49 0.0 0.0 0.00 0.00 0.00 55 1011.7
20260902124330 85 49 0.0 1.0 0.00 0.00 0.00 55 1011.5
20260902123335 85 77 1.0 3.0 0.00 0.00 0.00 54 1011.4
20260902122341 85 38 0.0 3.0 0.00 0.00 0.00 54 1011.3
20260902121353 85 60 0.0 3.0 0.00 0.00 0.00 51 1011.2
20260902120339 85 53 0.0 1.0 0.00 0.00 0.00 51 1011.1
20260902115345 85 319 0.0 0.0 0.00 0.00 0.00 49 1011.0
20260902114332 86 317 0.0 0.0 0.00 0.00 0.00 49 1011.0
20260902113343 86 297 0.0 0.0 0.00 0.00 0.00 47 1011.0
20260902112330 87 297 0.0 0.0 0.00 0.00 0.00 46 1011.0
20260902111337 87 297 0.0 0.0 0.00 0.00 0.00 46 1011.0
20260902110326 87 297 0.0 0.0 0.00 0.00 0.00 46 1010.8
20260902105353 87 254 0.0 2.0 0.00 0.00 0.00 46 1010.8
20260902104339 87 250 0.0 2.0 0.00 0.00 0.00 46 1010.9
20260902103404 87 262 0.0 3.0 0.00 0.00 0.00 47 1011.0
20260902102350 88 269 0.0 1.0 0.00 0.00 0.00 48 1011.0
20260902101340 88 269 0.0 0.0 0.00 0.00 0.00 47 1011.0
20260902100326 89 269 0.0 0.0 0.00 0.00 0.00 46 1011.0
20260902095333 89 269 0.0 0.0 0.00 0.00 0.00 46 1011.0
20260902094340 89 269 0.0 0.0 0.00 0.00 0.00 44 1010.9
20260902093332 90 269 0.0 2.0 0.00 0.00 0.00 44 1010.9
20260902092337 90 284 0.0 1.0 0.00 0.00 0.00 43 1010.8
20260902091344 90 276 0.0 2.0 0.00 0.00 0.00 43 1010.8
20260902090331 90 257 1.0 4.0 0.00 0.00 0.00 43 1010.8
20260902085357 90 257 0.0 4.0 0.00 0.00 0.00 43 1010.9
20260902084348 90 273 0.0 1.0 0.00 0.00 0.00 44 1010.9
20260902083333 90 269 1.0 2.0 0.00 0.00 0.00 44 1010.9
20260902082341 91 252 1.0 5.0 0.00 0.00 0.00 43 1010.9
20260902081347 91 259 1.0 3.0 0.00 0.00 0.00 43 1011.0
20260902080335 91 269 0.0 3.0 0.00 0.00 0.00 43 1011.0
20260902075341 91 232 0.0 2.0 0.00 0.00 0.00 42 1010.9
20260902074328 91 215 0.0 4.0 0.00 0.00 0.00 41 1010.9
20260902073336 92 205 0.0 3.0 0.00 0.00 0.00 40 1010.8
20260902072327 92 173 0.0 2.0 0.00 0.00 0.00 39 1010.7
20260902071353 92 189 1.0 4.0 0.00 0.00 0.00 39 1010.7
20260902070337 92 229 2.0 4.0 0.00 0.00 0.00 38 1010.5
20260902065403 92 258 0.0 3.0 0.00 0.00 0.00 39 1010.4
20260902064350 92 250 0.0 2.0 0.00 0.00 0.00 39 1010.4
20260902063340 92 242 0.0 2.0 0.00 0.00 0.00 39 1010.5
20260902062326 92 240 2.0 5.0 0.00 0.00 0.00 40 1010.5
20260902061333 93 160 0.0 2.0 0.00 0.00 0.00 39 1010.3
20260902060340 93 190 0.0 5.0 0.00 0.00 0.00 39 1010.4
20260902055352 93 182 2.0 3.0 0.00 0.00 0.00 39 1010.4
20260902054336 93 164 1.0 9.0 0.00 0.00 0.00 39 1010.3
20260902053344 93 155 3.0 7.0 0.00 0.00 0.00 39 1010.4
20260902052352 93 177 4.0 8.0 0.00 0.00 0.00 39 1010.5
20260902051341 93 167 1.0 2.0 0.00 0.00 0.00 40 1010.5
20260902050330 93 161 1.0 3.0 0.00 0.00 0.00 39 1010.4
20260902045337 93 140 2.0 3.0 0.00 0.00 0.00 39 1010.3
20260902044345 93 130 0.0 2.0 0.00 0.00 0.00 40 1010.2
20260902043335 93 135 1.0 3.0 0.00 0.00 0.00 39 1010.1
20260902042341 93 129 1.0 2.0 0.00 0.00 0.00 39 1010.0
20260902041327 93 90 0.0 0.0 0.00 0.00 0.00 37 1010.0
20260902040354 94 65 0.0 0.0 0.00 0.00 0.00 37 1009.9
20260902035401 94 65 0.0 1.0 0.00 0.00 0.00 36 1009.8
20260902034331 94 321 0.0 1.0 0.00 0.00 0.00 37 1009.8
20260902033336 94 285 0.0 1.0 0.00 0.00 0.00 37 1009.6
20260902032342 95 285 0.0 1.0 0.00 0.00 0.00 37 1009.4
20260902031349 95 285 0.0 0.0 0.00 0.00 0.00 36 1009.0
20260902030337 95 285 0.0 0.0 0.00 0.00 0.00 37 1009.0
20260902025343 96 285 0.0 1.0 0.00 0.00 0.00 36 1008.8
20260902024331 96 285 0.0 0.0 0.00 0.00 0.00 36 1008.6
20260902023338 96 285 0.0 0.0 0.00 0.00 0.00 35 1008.6
20260902022349 97 285 0.0 0.0 0.00 0.00 0.00 36 1008.6
20260902021334 97 285 0.0 1.0 0.00 0.00 0.00 35 1008.6
20260902020341 98 285 0.0 2.0 0.00 0.00 0.00 34 1008.6
20260902015329 98 323 0.0 3.0 0.00 0.00 0.00 33 1008.3
20260902014338 99 300 1.0 3.0 0.00 0.00 0.00 33 1008.3
20260902013341 100 153 2.0 5.0 0.00 0.00 0.00 31 1008.3
20260902012329 100 186 1.0 3.0 0.00 0.00 0.00 31 1008.3
20260902011357 101 283 1.0 3.0 0.00 0.00 0.00 31 1008.3
20260902010327 101 360 0.0 4.0 0.00 0.00 0.00 30 1008.4
20260902005336 101 207 2.0 5.0 0.00 0.00 0.00 30 1008.6
20260902004343 101 156 3.0 5.0 0.00 0.00 0.00 30 1008.7
20260902003330 101 51 2.0 5.0 0.00 0.00 0.00 29 1008.7
20260902002342 102 293 2.0 7.0 0.00 0.00 0.00 30 1008.9
20260902001349 102 263 1.0 4.0 0.00 0.00 0.00 28 1008.9
20260902000334 102 284 3.0 6.0 0.00 0.00 0.00 29 1008.9
20260901235341 102 267 2.0 4.0 0.00 0.00 0.00 31 1008.9
20260901234348 101 88 0.0 4.0 0.00 0.00 0.00 32 1009.0
20260901233338 101 266 2.0 4.0 0.00 0.00 0.00 31 1009.2